Location: Limerick
(52.6800°N, 8.6400°W)
Time: 21:08:34
(UTC+01:00)

Amateur Radio Satellites - All Passes

Search period start: 23 July 2014 20:38
Search period end: 24 July 2014 20:38
Location: Limerick, 52.6800°N, 8.6400°W

Satellite Date Start Highest point End Downlink Frequencies (MHz)
Time Altitude Azimuth
JAS-2 23 Jul 20:42:09 20:48:11 24° 274° (W) 20:54:01 435.800 - 435.900 CW/SSB, 435.910 FM
HO-68 23 Jul 20:52:28 20:59:29 59° 63° (ENE) 21:06:30 435.675 MHz FM
STRAND 1 23 Jul 21:12:44 21:17:47 59° 292° (WNW) 21:22:48 ?
Oscar 11 23 Jul 21:18:35 21:22:12 27° 62° (ENE) 21:25:49 145.825 FM, Beacon 2401.500 USB
UOSAT-12 23 Jul 21:21:11 21:24:37 19° 360° (N) 21:28:05 437.025 FM, 437.400 FM
FUNcube-1 23 Jul 21:24:28 21:26:49 15° 55° (NE) 21:29:09 145.950 - 145.970 MHz USB
RS-15 23 Jul 21:53:02 22:03:45 55° 26° (NNE) 22:14:42 29.354 - 29.394 USB, Beacon 29.352 USB
UKube-1 23 Jul 22:01:51 22:06:13 69° 256° (WSW) 22:10:37 145.840 MHz, 145.915 MHz
SO-50 23 Jul 22:07:43 22:12:19 50° 38° (NE) 22:16:58 436.795 FM
MaSat-1 23 Jul 22:31:57 22:33:38 12° 98° (E) 22:35:23 437.345 MHz
HO-68 23 Jul 22:40:59 22:47:32 38° 264° (W) 22:54:09 435.675 MHz FM
STRAND 1 23 Jul 22:53:38 22:56:01 13° 312° (NW) 22:58:24 ?
Oscar 11 23 Jul 22:54:06 22:58:14 44° 262° (W) 23:02:23 145.825 FM, Beacon 2401.500 USB
FUNcube-1 23 Jul 22:58:16 23:02:38 87° 75° (ENE) 23:06:56 145.950 - 145.970 MHz USB
UOSAT-12 23 Jul 23:02:04 23:06:11 28° 24° (NNE) 23:10:17 437.025 FM, 437.400 FM
SO-50 23 Jul 23:48:28 23:52:50 37° 238° (WSW) 23:57:14 436.795 FM
AO-40 23 Jul 23:53:23 04:47:08 25° 184° (S) 09:18:26 Beacon 2401.320
MaSat-1 24 Jul 00:05:48 00:09:57 77° 121° (ESE) 00:14:49 437.345 MHz
RS-15 24 Jul 00:05:55 00:16:51 75° 234° (SW) 00:28:07 29.354 - 29.394 USB, Beacon 29.352 USB
Oscar 10/S400 24 Jul 00:15:40 00:40:42 44° 162° (SSE) 07:45:55 145.825 - 145.975 CW/USB, Beacon 145.810 USB
FUNcube-1 24 Jul 00:37:34 00:39:39 13° 273° (W) 00:41:44 145.950 - 145.970 MHz USB
UOSAT-12 24 Jul 00:42:10 00:46:57 86° 46° (NE) 00:51:41 437.025 FM, 437.400 FM
MaSat-1 24 Jul 01:44:11 01:47:56 26° 325° (NW) 01:52:06 437.345 MHz
Lituanica SAT-1 24 Jul 01:53:35 01:54:59 15° 151° (SSE) 01:56:24 437.275 MHz beacon
Oscar 19 24 Jul 02:05:37 02:09:11 19° 88° (E) 02:12:44 437.125 CW, 437.150 USB
PCSat 24 Jul 02:09:06 02:12:55 20° 108° (ESE) 02:16:44 145.825 MHz
RS-15 24 Jul 02:19:19 02:27:23 24° 259° (W) 02:35:39 29.354 - 29.394 USB, Beacon 29.352 USB
UOSAT-12 24 Jul 02:23:13 02:26:33 19° 246° (WSW) 02:29:52 437.025 FM, 437.400 FM
Oscar 16 24 Jul 02:32:21 02:36:54 31° 94° (E) 02:41:26 437.025 USB, Beacon 2401.1428
ITAMSAT 1 24 Jul 02:41:35 02:45:09 18° 88° (E) 02:48:42 435.822 SSB
AO-27 24 Jul 02:58:46 03:03:04 25° 92° (E) 03:07:19 436.795 MHz FM
JAS-1B 24 Jul 03:01:49 03:10:04 30° 84° (E) 03:17:35 435.800 - 435.900 CW/SSB
Uribyol 2 24 Jul 03:02:02 03:06:27 28° 93° (E) 03:10:50 436.500 FM
OPAL 24 Jul 03:04:18 03:08:20 26° 55° (NE) 03:12:24 ?
AO-Echo 24 Jul 03:07:38 03:12:14 31° 93° (E) 03:16:41 ?
Sapphire 24 Jul 03:16:24 03:21:38 54° 120° (ESE) 03:26:56 437.095 MHz 1200 baud AX-25 AFSK
ISS 24 Jul 03:20:46 03:23:37 26° 150° (SSE) 03:26:29 145.800 FM
MaSat-1 24 Jul 03:24:54 03:27:05 13° 349° (N) 03:29:21 437.345 MHz
Lituanica SAT-1 24 Jul 03:25:22 03:27:29 52° 169° (S) 03:29:37 437.275 MHz beacon
Oscar 19 24 Jul 03:43:59 03:49:10 80° 288° (WNW) 03:54:20 437.125 CW, 437.150 USB
PCSat 24 Jul 03:50:14 03:55:40 89° 308° (NW) 04:01:08 145.825 MHz
TMSAT-1 24 Jul 04:07:03 04:11:46 32° 94° (E) 04:16:28 436.925 FM
Oscar 16 24 Jul 04:11:32 04:16:29 49° 294° (WNW) 04:21:26 437.025 USB, Beacon 2401.1428
ITAMSAT 1 24 Jul 04:20:05 04:25:19 81° 288° (WNW) 04:30:29 435.822 SSB
Gurwin Techsat 1B 24 Jul 04:27:24 04:32:40 58° 101° (E) 04:37:54 435.225 FM
AO-27 24 Jul 04:37:50 04:42:58 59° 292° (WNW) 04:48:03 436.795 MHz FM
Uribyol 2 24 Jul 04:41:12 04:46:15 54° 293° (WNW) 04:51:16 436.500 FM
OPAL 24 Jul 04:42:01 04:46:55 62° 255° (WSW) 04:51:51 ?
AO-Echo 24 Jul 04:46:12 04:51:14 48° 294° (WNW) 04:56:05 ?
JAS-1B 24 Jul 04:51:51 05:01:49 89° 288° (WNW) 05:10:42 435.800 - 435.900 CW/SSB
ISS 24 Jul 04:56:40 05:00:01 66° 169° (S) 05:03:22 145.800 FM
Lituanica SAT-1 24 Jul 04:58:04 05:00:13 57° 189° (S) 05:02:21 437.275 MHz beacon
Uosat F 24 Jul 04:59:48 05:03:48 23° 91° (E) 05:07:45 435.120 FM
Sapphire 24 Jul 05:00:10 05:05:17 41° 322° (NW) 05:10:25 437.095 MHz 1200 baud AX-25 AFSK
MaSat-1 24 Jul 05:04:09 05:06:38 13° 14° (NNE) 05:09:11 437.345 MHz
AO-7 24 Jul 05:11:24 05:18:46 33° 93° (E) 05:26:04 29.400 - 29.500 MHz
STRAND 1 24 Jul 05:19:39 05:22:20 14° 49° (NE) 05:25:02 ?
Oscar 19 24 Jul 05:24:31 05:27:48 17° 308° (NW) 05:31:04 437.125 CW, 437.150 USB
PCSat 24 Jul 05:35:06 05:39:47 29° 331° (NNW) 05:44:30 145.825 MHz
TMSAT-1 24 Jul 05:46:49 05:51:55 49° 294° (WNW) 05:56:59 436.925 FM
Oscar 16 24 Jul 05:53:11 05:54:44 11° 315° (NW) 05:56:16 437.025 USB, Beacon 2401.1428
ITAMSAT 1 24 Jul 06:00:44 06:04:05 18° 309° (NW) 06:07:25 435.822 SSB
Gurwin Techsat 1B 24 Jul 06:07:52 06:12:22 29° 301° (WNW) 06:16:51 435.225 FM
AO-27 24 Jul 06:19:01 06:21:31 14° 313° (NW) 06:24:00 436.795 MHz FM
Hamsat 24 Jul 06:20:32 06:22:17 12° 85° (E) 06:24:01 145.90 MHz
Uribyol 2 24 Jul 06:22:35 06:24:41 13° 314° (NW) 06:26:47 436.500 FM
AO-Echo 24 Jul 06:27:12 06:28:49 11° 315° (NW) 06:30:25 ?
Lituanica SAT-1 24 Jul 06:31:07 06:32:45 18° 207° (SSW) 06:34:22 437.275 MHz beacon
ISS 24 Jul 06:33:18 06:36:39 68° 189° (S) 06:40:01 145.800 FM
Uosat F 24 Jul 06:38:01 06:43:01 62° 291° (WNW) 06:47:58 435.120 FM
MaSat-1 24 Jul 06:41:15 06:45:43 28° 37° (NE) 06:50:16 437.345 MHz
JAS-1B 24 Jul 06:42:47 06:51:13 34° 312° (NW) 06:59:06 435.800 - 435.900 CW/SSB
Sapphire 24 Jul 06:46:15 06:50:09 20° 347° (NNW) 06:54:04 437.095 MHz 1200 baud AX-25 AFSK
STRAND 1 24 Jul 06:55:32 07:00:38 64° 69° (ENE) 07:05:45 ?
AO-7 24 Jul 07:03:58 07:12:19 75° 296° (WNW) 07:20:35 29.400 - 29.500 MHz
PCSat 24 Jul 07:21:18 07:24:58 18° 357° (N) 07:28:38 145.825 MHz
KITSAT 1 24 Jul 07:23:32 07:30:02 28° 107° (ESE) 07:36:32 435.175 FM
TMSAT-1 24 Jul 07:28:55 07:30:42 12° 315° (NW) 07:32:28 436.925 FM
JAS-2 24 Jul 07:43:49 07:50:13 53° 98° (E) 07:55:49 435.800 - 435.900 CW/SSB, 435.910 FM
Hamsat 24 Jul 07:54:38 07:58:55 88° 105° (ESE) 08:03:14 145.90 MHz
ISS 24 Jul 08:10:08 08:13:05 28° 209° (SSW) 08:16:01 145.800 FM
MaSat-1 24 Jul 08:18:24 08:23:44 86° 238° (WSW) 08:29:01 437.345 MHz
Uosat F 24 Jul 08:18:26 08:20:54 14° 312° (NW) 08:23:21 435.120 FM
Sapphire 24 Jul 08:31:39 08:35:34 20° 13° (NNE) 08:39:30 437.095 MHz 1200 baud AX-25 AFSK
JAS-1B 24 Jul 08:33:47 08:38:49 16° 337° (NNW) 08:43:46 435.800 - 435.900 CW/SSB
STRAND 1 24 Jul 08:36:12 08:40:17 23° 269° (W) 08:44:22 ?
AO-7 24 Jul 08:57:24 09:03:56 27° 319° (NW) 09:10:27 29.400 - 29.500 MHz
Saudisat 1A 24 Jul 08:59:03 09:00:25 11° 110° (ESE) 09:01:47 436.775 MHz
SO-67 24 Jul 09:01:40 09:05:11 88° 104° (ESE) 09:08:40 435.3500 MHz FM
PCSat 24 Jul 09:05:55 09:10:18 24° 23° (NNE) 09:14:40 145.825 MHz
KITSAT 1 24 Jul 09:16:24 09:24:32 89° 129° (SE) 09:32:42 435.175 FM
JAS-2 24 Jul 09:29:09 09:35:06 37° 302° (WNW) 09:40:25 435.800 - 435.900 CW/SSB, 435.910 FM
Hamsat 24 Jul 09:31:52 09:34:20 15° 304° (NW) 09:36:48 145.90 MHz
UKube-1 24 Jul 09:45:39 09:47:56 14° 87° (E) 09:50:11 145.840 MHz, 145.915 MHz
MaSat-1 24 Jul 09:56:55 10:00:26 18° 257° (WSW) 10:03:55 437.345 MHz
HO-68 24 Jul 10:01:15 10:07:41 34° 94° (E) 10:14:03 435.675 MHz FM
Sapphire 24 Jul 10:15:17 10:20:26 41° 38° (NE) 10:25:34 437.095 MHz 1200 baud AX-25 AFSK
JAS-1B 24 Jul 10:22:39 10:25:22 12° 3° (N) 10:28:05 435.800 - 435.900 CW/SSB
Saudisat 1A 24 Jul 10:34:48 10:39:11 65° 129° (SE) 10:43:35 436.775 MHz
Oscar 11 24 Jul 10:36:01 10:39:28 23° 92° (E) 10:42:54 145.825 FM, Beacon 2401.500 USB
SO-67 24 Jul 10:36:39 10:37:41 11° 303° (WNW) 10:38:44 435.3500 MHz FM
FUNcube-1 24 Jul 10:43:53 10:44:53 11° 85° (E) 10:45:53 145.950 - 145.970 MHz USB
PCSat 24 Jul 10:49:19 10:54:44 64° 46° (NE) 11:00:08 145.825 MHz
AO-7 24 Jul 10:50:48 10:53:58 13° 346° (NNW) 10:57:09 29.400 - 29.500 MHz
KITSAT 1 24 Jul 11:13:17 11:20:52 41° 335° (NNW) 11:28:28 435.175 FM
JAS-2 24 Jul 11:16:31 11:18:14 11° 326° (NW) 11:19:55 435.800 - 435.900 CW/SSB, 435.910 FM
UKube-1 24 Jul 11:20:22 11:24:46 85° 287° (WNW) 11:29:08 145.840 MHz, 145.915 MHz
HO-68 24 Jul 11:48:47 11:55:51 64° 296° (WNW) 12:02:53 435.675 MHz FM
Oscar 19 24 Jul 11:53:27 11:54:41 11° 45° (NE) 11:55:55 437.125 CW, 437.150 USB
Sapphire 24 Jul 11:58:47 12:04:03 53° 240° (WSW) 12:09:18 437.095 MHz 1200 baud AX-25 AFSK
JAS-1B 24 Jul 12:06:16 12:12:04 18° 30° (NNE) 12:18:01 435.800 - 435.900 CW/SSB
Oscar 11 24 Jul 12:11:44 12:15:56 50° 291° (WNW) 12:20:07 145.825 FM, Beacon 2401.500 USB
Saudisat 1A 24 Jul 12:15:05 12:19:06 32° 330° (NNW) 12:23:07 436.775 MHz
FUNcube-1 24 Jul 12:17:50 12:22:02 82° 104° (ESE) 12:26:12 145.950 - 145.970 MHz USB
Oscar 16 24 Jul 12:18:30 12:21:40 17° 51° (NE) 12:24:50 437.025 USB, Beacon 2401.1428
ITAMSAT 1 24 Jul 12:29:51 12:31:38 12° 45° (NE) 12:33:24 435.822 SSB
PCSat 24 Jul 12:33:11 12:37:51 30° 247° (WSW) 12:42:28 145.825 MHz
AO-7 24 Jul 12:40:12 12:43:17 13° 14° (NNE) 12:46:22 29.400 - 29.500 MHz
AO-27 24 Jul 12:46:11 12:49:07 15° 49° (NE) 12:52:03 436.795 MHz FM
Uribyol 2 24 Jul 12:49:02 12:52:09 16° 50° (NE) 12:55:16 436.500 FM
AO-Echo 24 Jul 12:50:04 12:53:13 16° 50° (NE) 12:56:23 ?
UKube-1 24 Jul 12:57:53 13:00:21 15° 306° (NW) 13:02:48 145.840 MHz, 145.915 MHz
KITSAT 1 24 Jul 13:11:23 13:18:30 32° 4° (N) 13:25:36 435.175 FM
Oscar 19 24 Jul 13:28:01 13:32:53 47° 66° (ENE) 13:37:48 437.125 CW, 437.150 USB
HO-68 24 Jul 13:37:28 13:42:22 20° 318° (NW) 13:47:14 435.675 MHz FM
JAS-1B 24 Jul 13:51:43 14:00:03 43° 54° (NE) 14:09:05 435.800 - 435.900 CW/SSB
Oscar 16 24 Jul 13:55:09 14:00:16 78° 72° (ENE) 14:05:25 437.025 USB, Beacon 2401.1428
FUNcube-1 24 Jul 13:55:28 13:57:55 15° 304° (NW) 14:00:21 145.950 - 145.970 MHz USB
TMSAT-1 24 Jul 13:56:16 13:59:47 18° 52° (NE) 14:03:19 436.925 FM
Saudisat 1A 24 Jul 13:56:49 13:59:55 18° 354° (N) 14:03:00 436.775 MHz
ITAMSAT 1 24 Jul 14:05:00 14:10:01 49° 66° (ENE) 14:15:03 435.822 SSB
SO-50 24 Jul 14:10:11 14:13:07 17° 113° (ESE) 14:16:07 436.795 FM
Gurwin Techsat 1B 24 Jul 14:15:45 14:20:19 30° 60° (ENE) 14:24:55 435.225 FM
AO-27 24 Jul 14:22:34 14:27:46 68° 70° (ENE) 14:32:58 436.795 MHz FM
Uribyol 2 24 Jul 14:25:39 14:30:50 73° 71° (ENE) 14:36:02 436.500 FM
AO-Echo 24 Jul 14:25:51 14:31:08 70° 71° (ENE) 14:36:27 ?
AO-7 24 Jul 14:26:49 14:33:16 26° 40° (NE) 14:39:44 29.400 - 29.500 MHz
RS-15 24 Jul 14:37:11 14:46:57 38° 110° (ESE) 14:56:34 29.354 - 29.394 USB, Beacon 29.352 USB
Uosat F 24 Jul 14:43:27 14:45:42 13° 48° (NE) 14:47:58 435.120 FM
Oscar 19 24 Jul 15:07:54 15:12:26 31° 266° (W) 15:17:00 437.125 CW, 437.150 USB
KITSAT 1 24 Jul 15:08:02 15:15:53 49° 32° (NNE) 15:23:40 435.175 FM
TMSAT-1 24 Jul 15:33:41 15:39:00 83° 73° (ENE) 15:44:20 436.925 FM
Oscar 16 24 Jul 15:36:40 15:40:15 19° 272° (W) 15:43:51 437.025 USB, Beacon 2401.1428
Saudisat 1A 24 Jul 15:37:26 15:40:57 22° 18° (NNE) 15:44:26 436.775 MHz
JAS-1B 24 Jul 15:41:07 15:49:58 72° 258° (WSW) 15:59:54 435.800 - 435.900 CW/SSB
ITAMSAT 1 24 Jul 15:45:08 15:49:44 31° 266° (W) 15:54:22 435.822 SSB
SO-50 24 Jul 15:48:34 15:53:04 89° 312° (NW) 15:57:43 436.795 FM
Gurwin Techsat 1B 24 Jul 15:54:52 16:00:04 54° 260° (W) 16:05:19 435.225 FM
AO-27 24 Jul 16:03:43 16:07:46 23° 269° (W) 16:11:51 436.795 MHz FM
AO-Echo 24 Jul 16:06:18 16:10:25 22° 271° (W) 16:14:33 ?
Uribyol 2 24 Jul 16:07:02 16:10:53 21° 270° (W) 16:14:44 436.500 FM
AO-7 24 Jul 16:16:33 16:24:51 72° 64° (ENE) 16:33:11 29.400 - 29.500 MHz
Uosat F 24 Jul 16:18:35 16:23:32 58° 68° (ENE) 16:28:30 435.120 FM
JAS-2 24 Jul 16:19:27 16:23:54 17° 43° (NE) 16:28:09 435.800 - 435.900 CW/SSB, 435.910 FM
UOSAT-12 24 Jul 16:38:52 16:43:00 33° 120° (ESE) 16:47:13 437.025 FM, 437.400 FM
OPAL 24 Jul 16:46:18 16:50:05 21° 93° (E) 16:53:53 ?
RS-15 24 Jul 16:47:17 16:58:22 82° 316° (NW) 17:09:24 29.354 - 29.394 USB, Beacon 29.352 USB
KITSAT 1 24 Jul 17:03:43 17:11:44 68° 237° (WSW) 17:19:42 435.175 FM
TMSAT-1 24 Jul 17:15:58 17:19:36 19° 272° (W) 17:23:16 436.925 FM
Saudisat 1A 24 Jul 17:16:57 17:21:21 61° 41° (NE) 17:25:43 436.775 MHz
Hamsat 24 Jul 17:19:21 17:22:20 19° 59° (ENE) 17:25:21 145.90 MHz
SO-50 24 Jul 17:30:18 17:34:14 28° 336° (NNW) 17:38:15 436.795 FM
JAS-1B 24 Jul 17:35:46 17:42:20 22° 282° (WNW) 17:49:24 435.800 - 435.900 CW/SSB
Uosat F 24 Jul 17:58:34 18:02:41 25° 268° (W) 18:06:51 435.120 FM
JAS-2 24 Jul 18:00:04 18:07:32 52° 64° (ENE) 18:14:32 435.800 - 435.900 CW/SSB, 435.910 FM
AO-7 24 Jul 18:10:52 18:18:18 35° 266° (W) 18:25:49 29.400 - 29.500 MHz
UOSAT-12 24 Jul 18:18:26 18:23:01 55° 321° (NW) 18:27:41 437.025 FM, 437.400 FM
OPAL 24 Jul 18:24:27 18:29:28 70° 292° (WNW) 18:34:31 ?
HO-68 24 Jul 18:52:28 18:56:32 16° 37° (NE) 19:00:35 435.675 MHz FM
Hamsat 24 Jul 18:53:48 18:57:56 62° 259° (WSW) 19:02:07 145.90 MHz
Saudisat 1A 24 Jul 18:56:58 19:00:41 27° 241° (WSW) 19:04:21 436.775 MHz
KITSAT 1 24 Jul 19:00:37 19:05:42 19° 259° (W) 19:10:47 435.175 FM
STRAND 1 24 Jul 19:01:42 19:04:16 14° 85° (E) 19:06:49 ?
RS-15 24 Jul 19:01:49 19:12:18 47° 346° (NNW) 19:22:51 29.354 - 29.394 USB, Beacon 29.352 USB
SO-50 24 Jul 19:12:52 19:16:12 19° 1° (N) 19:19:34 436.795 FM
SO-67 24 Jul 19:40:18 19:43:46 76° 75° (ENE) 19:47:16 435.3500 MHz FM
JAS-2 24 Jul 19:45:07 19:52:37 48° 263° (W) 19:59:44 435.800 - 435.900 CW/SSB, 435.910 FM
UOSAT-12 24 Jul 20:00:22 20:04:07 23° 344° (NNW) 20:07:54 437.025 FM, 437.400 FM
OPAL 24 Jul 20:04:38 20:07:35 16° 312° (NW) 20:10:32 ?
